Weather History for Eelde, Netherlands

Change the Weather History Date:

Sunday, May 20, 2012

  Actual Average Record
Temperature  
Mean Temperature 60 °F -  
Max Temperature 72 °F 65 °F 81 °F (2014)
Min Temperature 49 °F 47 °F 33 °F (2008)
Degree Days  
Heating Degree Days 4    
Growing Degree Days 10 (Base 50)    
Moisture  
Dew Point 55 °F    
Average Humidity 79    
Maximum Humidity 95    
Minimum Humidity 52    
Precipitation  
Precipitation 0.00 in 0.09 in - ()
Sea Level Pressure  
Sea Level Pressure 29.76 in    
Wind  
Wind Speed 7 mph ()    
Max Wind Speed 12 mph    
Max Gust Speed -    
Visibility 5.8 miles    
Events      
Averages and records for this station are not official NWS values.
T = Trace of Precipitation, MM = Missing Value Source: Averaged Metar Reports

Daily Weather History Graph

Daily Weather History Graph

Search for Another Location

Airport:

Trip Planner

Search our weather history database for the weather conditions in past years. The results will help you decide how hot, cold, wet, or windy it might be!

Date:

Astronomy

May. 20, 2012 Rise Set
Actual Time 5:26 AM CEST 9:34 PM CEST
Civil Twilight 4:41 AM CEST 10:20 PM CEST
Nautical Twilight 3:35 AM CEST 11:27 PM CEST
Astronomical Twilight 2:02 AM CEST 12:57 AM CEST
Moon 5:00 AM CEST (5/20) 9:19 PM CEST (5/20)
Length of Visible Light 17h 38m
Length of Day
16h 07m
Waning Crescent, 0% of the Moon is Illuminated
May 20
Waning Crescent
May 21
New
May 28
First Quarter
Jun 4
Full
Jun 11
Last Quarter

Hourly Weather History & Observations

Time (CEST) Temp. Dew Point Humidity Pressure Visibility Wind Dir Wind Speed Gust Speed Precip Events Conditions
12:25 AM 53.6 °F 51.8 °F 94% 29.86 in 3.1 mi NNE 6.9 mph - N/A   Partly Cloudy
12:55 AM 53.6 °F 51.8 °F 94% 29.86 in 3.7 mi NNE 6.9 mph - N/A   Partly Cloudy
1:25 AM 53.6 °F 50.0 °F 88% 29.83 in 3.1 mi NNE 5.8 mph - N/A   Partly Cloudy
1:55 AM 53.6 °F 50.0 °F 88% 29.83 in 3.1 mi NE 6.9 mph - N/A   Mist
2:00 AM 53 °F 50 °F 87% 29.85 in 3 mi NE 6.7 mph - -   Mist
2:25 AM 51.8 °F 50.0 °F 94% 29.83 in 3.1 mi NNE 5.8 mph - N/A   Mist
2:55 AM 50.0 °F 48.2 °F 94% 29.83 in 2.8 mi NNE 3.5 mph - N/A   Mist
3:25 AM 51.8 °F 50.0 °F 94% 29.83 in - NE 4.6 mph - N/A   Mist
3:55 AM 51.8 °F 50.0 °F 94% 29.83 in 2.8 mi NE 6.9 mph - N/A   Mist
4:25 AM 51.8 °F 50.0 °F 94% 29.80 in - ENE 5.8 mph - N/A   Mist
4:55 AM 51.8 °F 50.0 °F 94% 29.80 in - NNE 4.6 mph - N/A   Mist
5:00 AM 50 °F 49 °F 95% 29.82 in 2 mi North 4.5 mph - -   Mist
5:25 AM 50.0 °F 48.2 °F 94% 29.80 in 1.6 mi NNE 3.5 mph - N/A   Mist
5:55 AM 50.0 °F 48.2 °F 94% 29.80 in 1.4 mi NE 4.6 mph - N/A   Mist
6:25 AM 51.8 °F 50.0 °F 94% 29.80 in 1.3 mi NE 4.6 mph - N/A   Mist
6:55 AM 53.6 °F 51.8 °F 94% 29.80 in - NE 5.8 mph - N/A   Mist
7:25 AM 55.4 °F 53.6 °F 94% 29.80 in 2.8 mi ENE 6.9 mph - N/A   Mist
7:55 AM 57.2 °F 55.4 °F 94% 29.80 in 3.7 mi ENE 6.9 mph - N/A   Unknown
8:00 AM 58 °F 54 °F 84% 29.80 in 4 mi ENE 6.7 mph - -   Mist
8:25 AM 59.0 °F 55.4 °F 88% 29.77 in 5.0 mi ENE 8.1 mph - N/A   Unknown
8:55 AM 60.8 °F 55.4 °F 82% 29.80 in 6.2 mi East 8.1 mph - N/A   Unknown
9:25 AM 62.6 °F 55.4 °F 77% 29.77 in 6.2 mi East 6.9 mph - N/A   Unknown
9:55 AM 64.4 °F 57.2 °F 77% 29.77 in 6.2 mi East 6.9 mph - N/A   Unknown
10:25 AM 62.6 °F 55.4 °F 77% 29.77 in 6.2 mi East 5.8 mph - N/A   Unknown
10:55 AM 64.4 °F 59.0 °F 83% 29.77 in 6.2 mi ENE 6.9 mph - N/A   Partly Cloudy
11:00 AM 65 °F 57 °F 69% 29.80 in 12 mi ENE 8.9 mph - -   Overcast
11:25 AM 66.2 °F 57.2 °F 73% 29.77 in 6.2 mi East 11.5 mph - N/A   Partly Cloudy
11:55 AM 68.0 °F 57.2 °F 68% 29.77 in 6.2 mi East 10.4 mph - N/A   Unknown
12:25 PM 68.0 °F 55.4 °F 64% 29.77 in 6.2 mi East 11.5 mph - N/A   Unknown
12:55 PM 68.0 °F 57.2 °F 68% 29.77 in 6.2 mi East 11.5 mph - N/A   Unknown
1:25 PM 69.8 °F 57.2 °F 64% 29.77 in 6.2 mi East 9.2 mph - N/A   Unknown
1:55 PM 68.0 °F 57.2 °F 68% 29.77 in 6.2 mi ENE 8.1 mph - N/A   Unknown
2:00 PM 70 °F 57 °F 54% 29.77 in 14 mi ENE 11.2 mph - -   Scattered Clouds
2:25 PM 71.6 °F 57.2 °F 60% 29.74 in 6.2 mi ENE 9.2 mph - N/A   Unknown
2:55 PM 69.8 °F 57.2 °F 64% 29.74 in 6.2 mi NE 10.4 mph - N/A   Unknown
3:25 PM 69.8 °F 57.2 °F 64% 29.74 in 6.2 mi ENE 10.4 mph - N/A   Unknown
3:55 PM 69.8 °F 59.0 °F 68% 29.74 in 6.2 mi ENE 9.2 mph - N/A   Unknown
4:25 PM 69.8 °F 55.4 °F 60% 29.74 in 6.2 mi NE 10.4 mph - N/A   Unknown
4:55 PM 69.8 °F 57.2 °F 64% 29.71 in 6.2 mi NE 9.2 mph - N/A   Unknown
5:00 PM 71 °F 57 °F 52% 29.73 in 17 mi NE 8.9 mph - -   Scattered Clouds
5:25 PM 73.4 °F 59.0 °F 61% 29.71 in 6.2 mi ENE 8.1 mph - N/A   Unknown
5:55 PM 71.6 °F 59.0 °F 64% 29.71 in 6.2 mi ENE 9.2 mph - N/A   Unknown
6:25 PM 71.6 °F 59.0 °F 64% 29.68 in 6.2 mi NE 10.4 mph - N/A   Unknown
6:55 PM 71.6 °F 59.0 °F 64% 29.68 in 6.2 mi NE 10.4 mph - N/A   Unknown
7:25 PM 69.8 °F 59.0 °F 68% 29.68 in 6.2 mi ENE 10.4 mph - N/A   Unknown
7:55 PM 68.0 °F 57.2 °F 68% 29.71 in 6.2 mi ENE 8.1 mph - N/A   Unknown
8:00 PM 68 °F 58 °F 61% 29.71 in 12 mi NE 6.7 mph - -   Scattered Clouds
8:25 PM 68.0 °F 57.2 °F 68% 29.71 in 6.2 mi NE 6.9 mph - N/A   Unknown
8:55 PM 66.2 °F 59.0 °F 78% 29.68 in 6.2 mi NNE 5.8 mph - N/A   Unknown
9:25 PM 64.4 °F 59.0 °F 83% 29.68 in 6.2 mi NNE 6.9 mph - N/A   Unknown
9:55 PM 64.4 °F 59.0 °F 83% 29.71 in 6.2 mi NNE 5.8 mph - N/A   Unknown
10:25 PM 62.6 °F 59.0 °F 88% 29.71 in 6.2 mi NE 5.8 mph - N/A   Unknown
10:55 PM 62.6 °F 59.0 °F 88% 29.68 in 6.2 mi NE 4.6 mph - N/A   Unknown
11:00 PM 62 °F 58 °F 83% 29.71 in 6 mi NE 6.7 mph - -   Scattered Clouds
11:25 PM 60.8 °F 57.2 °F 88% 29.68 in 6.2 mi NNE 4.6 mph - N/A   Unknown
11:55 PM 59.0 °F 57.2 °F 94% 29.68 in 6.2 mi NE 6.9 mph - N/A   Unknown